Weather History for Iron Mountain, MI

Change the Weather History Date:

Wednesday, November 2, 2011

  Actual Average Record
Temperature  
Mean Temperature 41 °F -  
Max Temperature 45 °F 49 °F 70 °F (1990)
Min Temperature 36 °F 31 °F 6 °F (1951)
Degree Days  
Heating Degree Days 24    
Moisture  
Dew Point 40 °F    
Average Humidity 92    
Maximum Humidity 100    
Minimum Humidity 82    
Precipitation  
Precipitation 0.03 in - - ()
Sea Level Pressure  
Sea Level Pressure 30.08 in    
Wind  
Wind Speed 7 mph (NW)    
Max Wind Speed 14 mph    
Max Gust Speed 20 mph    
Visibility 8 miles    
Events Rain    
Averages and records for this station are not official NWS values.
T = Trace of Precipitation, MM = Missing Value Source: NWS Daily Summary

Daily Weather History Graph

Daily Weather History Graph

Search for Another Location

Airport:

Trip Planner

Search our weather history database for the weather conditions in past years. The results will help you decide how hot, cold, wet, or windy it might be!

Date:

Astronomy

Nov. 02, 2011 Rise Set
Actual Time 7:33 AM CDT 5:37 PM CDT
Civil Twilight 7:02 AM CDT 6:08 PM CDT
Nautical Twilight 6:27 AM CDT 6:44 PM CDT
Astronomical Twilight 5:52 AM CDT 7:18 PM CDT
Moon 1:52 PM CDT (11/2) No Moon Set
Length of Visible Light 11h 06m
Length of Day
10h 04m
Waxing Crescent, 50% of the Moon is Illuminated
Nov 2
Waxing Crescent
Nov 10
Full
Nov 18
Last Quarter
Nov 25
New
Dec 2
First Quarter

Hourly Weather History & Observations

Time (CDT) Temp. Windchill Dew Point Humidity Pressure Visibility Wind Dir Wind Speed Gust Speed Precip Events Conditions
12:54 AM 42.1 °F 40.2 °F 39.0 °F 89% 30.00 in 5.0 mi NNW 3.5 mph - N/A   Overcast
1:54 AM 43.0 °F 38.8 °F 39.0 °F 86% 30.00 in 10.0 mi NNW 6.9 mph - N/A   Overcast
2:54 AM 45.0 °F 40.6 °F 39.9 °F 82% 30.00 in 10.0 mi NNW 8.1 mph - N/A   Overcast
3:54 AM 43.0 °F 38.2 °F 42.1 °F 97% 30.02 in 4.0 mi NNW 8.1 mph - 0.01 in Rain Light Rain
4:54 AM 43.0 °F 38.8 °F 42.1 °F 97% 30.04 in 4.0 mi NW 6.9 mph - 0.01 in Rain Light Rain
5:54 AM 43.0 °F 41.3 °F 42.1 °F 97% 30.05 in 9.0 mi NW 3.5 mph - 0.01 in   Overcast
6:54 AM 43.0 °F 38.8 °F 41.0 °F 93% 30.05 in 9.0 mi NNW 6.9 mph - N/A   Overcast
7:54 AM 43.0 °F 40.3 °F 39.9 °F 89% 30.05 in 8.0 mi North 4.6 mph - 0.00 in Rain Light Rain
8:50 AM 42.8 °F 38.6 °F 42.8 °F 100% 30.06 in 6.0 mi NW 6.9 mph - 0.00 in   Overcast
8:54 AM 43.0 °F 38.8 °F 42.1 °F 97% 30.10 in 6.0 mi NW 6.9 mph - 0.00 in   Overcast
9:01 AM 42.8 °F 38.0 °F 42.8 °F 100% 30.07 in 7.0 mi NW 8.1 mph - N/A   Overcast
9:11 AM 42.8 °F 38.6 °F 41.0 °F 93% 30.07 in 7.0 mi NW 6.9 mph - N/A   Overcast
9:43 AM 42.8 °F 38.6 °F 42.8 °F 100% 30.07 in 6.0 mi NW 6.9 mph - N/A   Overcast
9:54 AM 43.0 °F 37.7 °F 42.1 °F 97% 30.10 in 6.0 mi NW 9.2 mph - N/A   Overcast
10:39 AM 44.6 °F 39.7 °F 41.0 °F 87% 30.05 in 7.0 mi NNW 9.2 mph - N/A   Overcast
10:54 AM 44.1 °F 39.5 °F 41.0 °F 89% 30.09 in 6.0 mi NW 8.1 mph - N/A   Overcast
11:17 AM 42.8 °F 37.0 °F 41.0 °F 93% 30.06 in 6.0 mi NNW 10.4 mph - N/A   Overcast
11:54 AM 43.0 °F 38.8 °F 41.0 °F 93% 30.10 in 7.0 mi NNW 6.9 mph - N/A   Overcast
12:01 PM 42.8 °F 37.0 °F 41.0 °F 93% 30.07 in 7.0 mi NW 10.4 mph - N/A   Overcast
12:14 PM 42.8 °F 36.2 °F 41.0 °F 93% 30.07 in 7.0 mi NW 12.7 mph - N/A   Overcast
12:24 PM 42.8 °F 35.8 °F 41.0 °F 93% 30.07 in 6.0 mi NW 13.8 mph 19.6 mph 0.00 in Rain Light Rain
12:47 PM 42.8 °F 36.2 °F 41.0 °F 93% 30.08 in 7.0 mi NW 12.7 mph - 0.00 in Rain Light Rain
12:54 PM 43.0 °F 37.7 °F 41.0 °F 93% 30.11 in 7.0 mi NW 9.2 mph - 0.00 in Rain Light Rain
1:11 PM 42.8 °F 37.5 °F 41.0 °F 93% 30.08 in 6.0 mi NW 9.2 mph - 0.00 in Rain Light Rain
1:54 PM 43.0 °F 37.7 °F 39.9 °F 89% 30.09 in 10.0 mi NNW 9.2 mph - 0.00 in   Overcast
2:54 PM 43.0 °F 37.2 °F 37.9 °F 82% 30.07 in 10.0 mi NNW 10.4 mph - 0.00 in   Overcast
3:54 PM 43.0 °F 41.3 °F 37.9 °F 82% 30.10 in 10.0 mi NW 3.5 mph - N/A   Overcast
4:54 PM 42.1 °F 40.2 °F 37.9 °F 85% 30.10 in 10.0 mi NW 3.5 mph - N/A   Overcast
5:54 PM 41.0 °F - 39.0 °F 93% 30.11 in 10.0 mi Calm Calm - N/A   Overcast
6:54 PM 41.0 °F 38.0 °F 37.9 °F 89% 30.13 in 10.0 mi NNW 4.6 mph - N/A   Mostly Cloudy
7:54 PM 41.0 °F 36.4 °F 37.0 °F 86% 30.14 in 10.0 mi NW 6.9 mph - N/A   Clear
8:54 PM 39.9 °F 35.8 °F 36.0 °F 86% 30.15 in 10.0 mi NNW 5.8 mph - N/A   Clear
10:54 PM 37.0 °F 33.3 °F 34.0 °F 89% 30.16 in 10.0 mi NW 4.6 mph - N/A   Clear
11:54 PM 36.0 °F 30.3 °F 34.0 °F 93% 30.17 in 10.0 mi NNW 6.9 mph - N/A   Clear